Погода в Бувайде

Узбекистан     40˚38′20″N   71˚05′02″E
темп.,
°C
ветер,
м/с
пор.,
м/с
влажн.,
%
обл.,
%
осадки,
мм/ч
давл.,
гПа
погр.,
м
16 января, сб
сб1623:00+5˚всв12620 0.0 101922
02:00+4˚всв12650 0.0 101822
05:00+3˚всв12680 0.0 101822
08:00+2˚всв12700 0.0 102022
11:00+7˚в12490 0.0 1019234
14:00+11˚всв22350 0.0 1018426
17:00+9˚св01430 0.0 101922
20:00+7˚св11490 0.0 102022
17 января, вс
вс1723:00+5˚всв23520 0.0 102022
02:00+4˚св22540 0.0 101922
05:00+2˚всв22560 0.0 101922
08:00+2˚всв12530 0.0 101922
11:00+7˚всв12376 0.0 1016273
14:00+9˚всв112899 0.0 1013401
17:00+8˚всв113696 0.0 101122
20:00+6˚всв224199 0.0 101222
18 января, пн
пн1823:00+4˚всв124686 0.0 101122
02:00+3˚всв1247100 0.0 101122
05:00+2˚всв2350100 0.0 101122
08:00+2˚всв2246100 0.0 101322
11:00+6˚в2334100 0.0 1012225
14:00+9˚св1228100 0.0 1011328
17:00+7˚ю113391 0.0 101422
20:00+6˚юз1235100 0.0 101622
19 января, вт
вт1923:00+5˚в234097 0.0 101732
02:00+4˚св2345100 0.0 101723
05:00+3˚юв1247100 0.0 101724
08:00+3˚всв114898 0.0 101822
11:00+7˚в113699 0.0 1018141
14:00+10˚вюв2331100 0.0 1018340
17:00+8˚ссв1138100 0.0 101922
20:00+7˚ююз1140100 0.0 102122
20 января, ср
ср2023:00+6˚юз1141100 0.0 102222
02:00+5˚вюв1150100 0.1 102422
05:00+4˚св336052 0.1 102429
08:00+4˚св33720 0.0 102535
11:00+9˚вюв235510 0.0 1022335
14:00+12˚вюв2444100 0.0 1018821
17:00+10˚юз335699 0.0 101863
20:00+7˚юз356670 0.0 101986